<?xml version="1.0" encoding="UTF-8" standalone="no" ?>
<gpx xmlns="http://www.topografix.com/GPX/1/1" xmlns:xsi="http://www.w3.org/2001/XMLSchema-instance" xsi:schemaLocation="http://www.topografix.com/GPX/1/1 http://www.topografix.com/GPX/1/1/gpx.xsd" version="1.1" creator="VisuGPX - https://www.visugpx.com">
  <metadata>
    <name>Rossignol RUN - 7 KMS </name>
  </metadata>
  <trk>
    <name><![CDATA[Rossignol Run 2026 - 7kms-23049603]]></name>
    <trkseg>
      <trkpt lat="49.71861" lon="5.48329">
        <ele>335</ele>
        <time>2025-12-18T15:45:59Z</time>
      </trkpt>
      <trkpt lat="49.71905" lon="5.48368">
        <ele>335</ele>
        <time>2025-12-18T15:46:24Z</time>
      </trkpt>
      <trkpt lat="49.71932" lon="5.48389">
        <ele>335</ele>
        <time>2025-12-18T15:46:40Z</time>
      </trkpt>
      <trkpt lat="49.71955" lon="5.48408">
        <ele>336</ele>
        <time>2025-12-18T15:46:53Z</time>
      </trkpt>
      <trkpt lat="49.71959" lon="5.48396">
        <ele>336</ele>
        <time>2025-12-18T15:46:57Z</time>
      </trkpt>
      <trkpt lat="49.71959" lon="5.48396">
        <ele>336</ele>
        <time>2025-12-18T15:46:57Z</time>
      </trkpt>
      <trkpt lat="49.71995" lon="5.48309">
        <ele>335</ele>
        <time>2025-12-18T15:47:30Z</time>
      </trkpt>
      <trkpt lat="49.71997" lon="5.48298">
        <ele>335</ele>
        <time>2025-12-18T15:47:34Z</time>
      </trkpt>
      <trkpt lat="49.71997" lon="5.48286">
        <ele>336</ele>
        <time>2025-12-18T15:47:38Z</time>
      </trkpt>
      <trkpt lat="49.71992" lon="5.48244">
        <ele>336</ele>
        <time>2025-12-18T15:47:52Z</time>
      </trkpt>
      <trkpt lat="49.71989" lon="5.48204">
        <ele>337</ele>
        <time>2025-12-18T15:48:05Z</time>
      </trkpt>
      <trkpt lat="49.7199" lon="5.48167">
        <ele>338</ele>
        <time>2025-12-18T15:48:17Z</time>
      </trkpt>
      <trkpt lat="49.71993" lon="5.48145">
        <ele>338</ele>
        <time>2025-12-18T15:48:24Z</time>
      </trkpt>
      <trkpt lat="49.72001" lon="5.4811">
        <ele>339</ele>
        <time>2025-12-18T15:48:36Z</time>
      </trkpt>
      <trkpt lat="49.72009" lon="5.48084">
        <ele>339</ele>
        <time>2025-12-18T15:48:45Z</time>
      </trkpt>
      <trkpt lat="49.72017" lon="5.48067">
        <ele>340</ele>
        <time>2025-12-18T15:48:52Z</time>
      </trkpt>
      <trkpt lat="49.7202" lon="5.48055">
        <ele>340</ele>
        <time>2025-12-18T15:48:56Z</time>
      </trkpt>
      <trkpt lat="49.72034" lon="5.48036">
        <ele>341</ele>
        <time>2025-12-18T15:49:06Z</time>
      </trkpt>
      <trkpt lat="49.72034" lon="5.48036">
        <ele>341</ele>
        <time>2025-12-18T15:49:06Z</time>
      </trkpt>
      <trkpt lat="49.72042" lon="5.48027">
        <ele>341</ele>
        <time>2025-12-18T15:49:11Z</time>
      </trkpt>
      <trkpt lat="49.72044" lon="5.4801">
        <ele>342</ele>
        <time>2025-12-18T15:49:16Z</time>
      </trkpt>
      <trkpt lat="49.72042" lon="5.48027">
        <ele>341</ele>
        <time>2025-12-18T15:49:22Z</time>
      </trkpt>
      <trkpt lat="49.72045" lon="5.48044">
        <ele>341</ele>
        <time>2025-12-18T15:49:27Z</time>
      </trkpt>
      <trkpt lat="49.72053" lon="5.48058">
        <ele>342</ele>
        <time>2025-12-18T15:49:34Z</time>
      </trkpt>
      <trkpt lat="49.72082" lon="5.4808">
        <ele>343</ele>
        <time>2025-12-18T15:49:50Z</time>
      </trkpt>
      <trkpt lat="49.72097" lon="5.4804">
        <ele>344</ele>
        <time>2025-12-18T15:50:05Z</time>
      </trkpt>
      <trkpt lat="49.7211" lon="5.48019">
        <ele>344</ele>
        <time>2025-12-18T15:50:14Z</time>
      </trkpt>
      <trkpt lat="49.72119" lon="5.4801">
        <ele>344</ele>
        <time>2025-12-18T15:50:19Z</time>
      </trkpt>
      <trkpt lat="49.72159" lon="5.47991">
        <ele>346</ele>
        <time>2025-12-18T15:50:40Z</time>
      </trkpt>
      <trkpt lat="49.72177" lon="5.47984">
        <ele>346</ele>
        <time>2025-12-18T15:50:50Z</time>
      </trkpt>
      <trkpt lat="49.72196" lon="5.47972">
        <ele>347</ele>
        <time>2025-12-18T15:51:00Z</time>
      </trkpt>
      <trkpt lat="49.72216" lon="5.47958">
        <ele>347</ele>
        <time>2025-12-18T15:51:11Z</time>
      </trkpt>
      <trkpt lat="49.72224" lon="5.47947">
        <ele>347</ele>
        <time>2025-12-18T15:51:16Z</time>
      </trkpt>
      <trkpt lat="49.72251" lon="5.479">
        <ele>347</ele>
        <time>2025-12-18T15:51:37Z</time>
      </trkpt>
      <trkpt lat="49.72287" lon="5.47833">
        <ele>347</ele>
        <time>2025-12-18T15:52:05Z</time>
      </trkpt>
      <trkpt lat="49.7229" lon="5.47827">
        <ele>347</ele>
        <time>2025-12-18T15:52:07Z</time>
      </trkpt>
      <trkpt lat="49.72327" lon="5.4778">
        <ele>349</ele>
        <time>2025-12-18T15:52:31Z</time>
      </trkpt>
      <trkpt lat="49.72361" lon="5.47749">
        <ele>350</ele>
        <time>2025-12-18T15:52:51Z</time>
      </trkpt>
      <trkpt lat="49.7241" lon="5.47703">
        <ele>353</ele>
        <time>2025-12-18T15:53:20Z</time>
      </trkpt>
      <trkpt lat="49.72433" lon="5.47669">
        <ele>354</ele>
        <time>2025-12-18T15:53:36Z</time>
      </trkpt>
      <trkpt lat="49.72471" lon="5.47599">
        <ele>354</ele>
        <time>2025-12-18T15:54:05Z</time>
      </trkpt>
      <trkpt lat="49.72479" lon="5.47587">
        <ele>354</ele>
        <time>2025-12-18T15:54:11Z</time>
      </trkpt>
      <trkpt lat="49.72535" lon="5.47512">
        <ele>353</ele>
        <time>2025-12-18T15:54:48Z</time>
      </trkpt>
      <trkpt lat="49.72543" lon="5.4752">
        <ele>354</ele>
        <time>2025-12-18T15:54:53Z</time>
      </trkpt>
      <trkpt lat="49.72599" lon="5.47606">
        <ele>357</ele>
        <time>2025-12-18T15:55:32Z</time>
      </trkpt>
      <trkpt lat="49.7265" lon="5.47675">
        <ele>361</ele>
        <time>2025-12-18T15:56:06Z</time>
      </trkpt>
      <trkpt lat="49.72691" lon="5.4774">
        <ele>362</ele>
        <time>2025-12-18T15:56:35Z</time>
      </trkpt>
      <trkpt lat="49.72718" lon="5.47789">
        <ele>362</ele>
        <time>2025-12-18T15:56:56Z</time>
      </trkpt>
      <trkpt lat="49.72741" lon="5.4783">
        <ele>363</ele>
        <time>2025-12-18T15:57:14Z</time>
      </trkpt>
      <trkpt lat="49.72836" lon="5.47659">
        <ele>374</ele>
        <time>2025-12-18T15:58:27Z</time>
      </trkpt>
      <trkpt lat="49.72848" lon="5.47636">
        <ele>374</ele>
        <time>2025-12-18T15:58:36Z</time>
      </trkpt>
      <trkpt lat="49.72876" lon="5.47589">
        <ele>377</ele>
        <time>2025-12-18T15:58:57Z</time>
      </trkpt>
      <trkpt lat="49.72879" lon="5.47584">
        <ele>377</ele>
        <time>2025-12-18T15:58:59Z</time>
      </trkpt>
      <trkpt lat="49.72879" lon="5.47582">
        <ele>377</ele>
        <time>2025-12-18T15:59:00Z</time>
      </trkpt>
      <trkpt lat="49.72879" lon="5.47582">
        <ele>377</ele>
        <time>2025-12-18T15:59:00Z</time>
      </trkpt>
      <trkpt lat="49.7288" lon="5.47581">
        <ele>377</ele>
        <time>2025-12-18T15:59:00Z</time>
      </trkpt>
      <trkpt lat="49.72891" lon="5.47562">
        <ele>378</ele>
        <time>2025-12-18T15:59:09Z</time>
      </trkpt>
      <trkpt lat="49.7292" lon="5.47572">
        <ele>382</ele>
        <time>2025-12-18T15:59:23Z</time>
      </trkpt>
      <trkpt lat="49.72954" lon="5.47576">
        <ele>382</ele>
        <time>2025-12-18T15:59:40Z</time>
      </trkpt>
      <trkpt lat="49.72972" lon="5.47581">
        <ele>383</ele>
        <time>2025-12-18T15:59:50Z</time>
      </trkpt>
      <trkpt lat="49.7297" lon="5.47585">
        <ele>383</ele>
        <time>2025-12-18T15:59:51Z</time>
      </trkpt>
      <trkpt lat="49.7297" lon="5.47603">
        <ele>383</ele>
        <time>2025-12-18T15:59:57Z</time>
      </trkpt>
      <trkpt lat="49.72976" lon="5.47631">
        <ele>383</ele>
        <time>2025-12-18T16:00:07Z</time>
      </trkpt>
      <trkpt lat="49.72975" lon="5.47655">
        <ele>383</ele>
        <time>2025-12-18T16:00:14Z</time>
      </trkpt>
      <trkpt lat="49.72967" lon="5.47705">
        <ele>382</ele>
        <time>2025-12-18T16:00:31Z</time>
      </trkpt>
      <trkpt lat="49.72965" lon="5.47742">
        <ele>381</ele>
        <time>2025-12-18T16:00:43Z</time>
      </trkpt>
      <trkpt lat="49.72971" lon="5.47769">
        <ele>381</ele>
        <time>2025-12-18T16:00:52Z</time>
      </trkpt>
      <trkpt lat="49.72981" lon="5.47797">
        <ele>380</ele>
        <time>2025-12-18T16:01:03Z</time>
      </trkpt>
      <trkpt lat="49.73007" lon="5.4786">
        <ele>379</ele>
        <time>2025-12-18T16:01:27Z</time>
      </trkpt>
      <trkpt lat="49.73026" lon="5.47912">
        <ele>377</ele>
        <time>2025-12-18T16:01:46Z</time>
      </trkpt>
      <trkpt lat="49.73047" lon="5.48001">
        <ele>372</ele>
        <time>2025-12-18T16:02:17Z</time>
      </trkpt>
      <trkpt lat="49.7305" lon="5.48008">
        <ele>372</ele>
        <time>2025-12-18T16:02:20Z</time>
      </trkpt>
      <trkpt lat="49.73062" lon="5.48012">
        <ele>372</ele>
        <time>2025-12-18T16:02:26Z</time>
      </trkpt>
      <trkpt lat="49.73085" lon="5.48017">
        <ele>372</ele>
        <time>2025-12-18T16:02:37Z</time>
      </trkpt>
      <trkpt lat="49.7312" lon="5.48032">
        <ele>371</ele>
        <time>2025-12-18T16:02:55Z</time>
      </trkpt>
      <trkpt lat="49.73139" lon="5.48055">
        <ele>370</ele>
        <time>2025-12-18T16:03:08Z</time>
      </trkpt>
      <trkpt lat="49.73188" lon="5.48023">
        <ele>372</ele>
        <time>2025-12-18T16:03:34Z</time>
      </trkpt>
      <trkpt lat="49.73585" lon="5.47771">
        <ele>386</ele>
        <time>2025-12-18T16:07:09Z</time>
      </trkpt>
      <trkpt lat="49.73602" lon="5.47761">
        <ele>386</ele>
        <time>2025-12-18T16:07:18Z</time>
      </trkpt>
      <trkpt lat="49.73766" lon="5.47633">
        <ele>390</ele>
        <time>2025-12-18T16:08:50Z</time>
      </trkpt>
      <trkpt lat="49.73838" lon="5.47571">
        <ele>391</ele>
        <time>2025-12-18T16:09:31Z</time>
      </trkpt>
      <trkpt lat="49.73847" lon="5.47593">
        <ele>391</ele>
        <time>2025-12-18T16:09:40Z</time>
      </trkpt>
      <trkpt lat="49.7387" lon="5.47632">
        <ele>392</ele>
        <time>2025-12-18T16:09:57Z</time>
      </trkpt>
      <trkpt lat="49.73875" lon="5.47639">
        <ele>393</ele>
        <time>2025-12-18T16:10:00Z</time>
      </trkpt>
      <trkpt lat="49.73879" lon="5.47643">
        <ele>393</ele>
        <time>2025-12-18T16:10:02Z</time>
      </trkpt>
      <trkpt lat="49.73901" lon="5.47659">
        <ele>393</ele>
        <time>2025-12-18T16:10:15Z</time>
      </trkpt>
      <trkpt lat="49.73906" lon="5.47669">
        <ele>394</ele>
        <time>2025-12-18T16:10:19Z</time>
      </trkpt>
      <trkpt lat="49.73906" lon="5.47669">
        <ele>394</ele>
        <time>2025-12-18T16:10:19Z</time>
      </trkpt>
      <trkpt lat="49.7391" lon="5.4768">
        <ele>394</ele>
        <time>2025-12-18T16:10:23Z</time>
      </trkpt>
      <trkpt lat="49.73915" lon="5.47694">
        <ele>395</ele>
        <time>2025-12-18T16:10:28Z</time>
      </trkpt>
      <trkpt lat="49.73921" lon="5.47697">
        <ele>395</ele>
        <time>2025-12-18T16:10:31Z</time>
      </trkpt>
      <trkpt lat="49.73936" lon="5.47699">
        <ele>396</ele>
        <time>2025-12-18T16:10:39Z</time>
      </trkpt>
      <trkpt lat="49.73946" lon="5.47696">
        <ele>396</ele>
        <time>2025-12-18T16:10:44Z</time>
      </trkpt>
      <trkpt lat="49.73948" lon="5.47694">
        <ele>396</ele>
        <time>2025-12-18T16:10:45Z</time>
      </trkpt>
      <trkpt lat="49.73948" lon="5.47694">
        <ele>396</ele>
        <time>2025-12-18T16:10:45Z</time>
      </trkpt>
      <trkpt lat="49.73976" lon="5.47663">
        <ele>397</ele>
        <time>2025-12-18T16:11:02Z</time>
      </trkpt>
      <trkpt lat="49.73987" lon="5.47656">
        <ele>398</ele>
        <time>2025-12-18T16:11:08Z</time>
      </trkpt>
      <trkpt lat="49.74044" lon="5.47625">
        <ele>400</ele>
        <time>2025-12-18T16:11:38Z</time>
      </trkpt>
      <trkpt lat="49.74128" lon="5.47575">
        <ele>401</ele>
        <time>2025-12-18T16:12:23Z</time>
      </trkpt>
      <trkpt lat="49.74133" lon="5.4757">
        <ele>401</ele>
        <time>2025-12-18T16:12:26Z</time>
      </trkpt>
      <trkpt lat="49.74156" lon="5.47541">
        <ele>401</ele>
        <time>2025-12-18T16:12:41Z</time>
      </trkpt>
      <trkpt lat="49.74196" lon="5.47506">
        <ele>402</ele>
        <time>2025-12-18T16:13:04Z</time>
      </trkpt>
      <trkpt lat="49.74238" lon="5.47461">
        <ele>405</ele>
        <time>2025-12-18T16:13:30Z</time>
      </trkpt>
      <trkpt lat="49.74283" lon="5.47394">
        <ele>407</ele>
        <time>2025-12-18T16:14:01Z</time>
      </trkpt>
      <trkpt lat="49.74297" lon="5.47365">
        <ele>407</ele>
        <time>2025-12-18T16:14:13Z</time>
      </trkpt>
      <trkpt lat="49.7432" lon="5.47318">
        <ele>407</ele>
        <time>2025-12-18T16:14:32Z</time>
      </trkpt>
      <trkpt lat="49.74325" lon="5.47298">
        <ele>406</ele>
        <time>2025-12-18T16:14:39Z</time>
      </trkpt>
      <trkpt lat="49.74334" lon="5.47282">
        <ele>406</ele>
        <time>2025-12-18T16:14:46Z</time>
      </trkpt>
      <trkpt lat="49.74339" lon="5.47252">
        <ele>405</ele>
        <time>2025-12-18T16:14:56Z</time>
      </trkpt>
      <trkpt lat="49.74346" lon="5.47245">
        <ele>406</ele>
        <time>2025-12-18T16:15:00Z</time>
      </trkpt>
      <trkpt lat="49.74335" lon="5.47203">
        <ele>404</ele>
        <time>2025-12-18T16:15:14Z</time>
      </trkpt>
      <trkpt lat="49.74328" lon="5.47162">
        <ele>403</ele>
        <time>2025-12-18T16:15:28Z</time>
      </trkpt>
      <trkpt lat="49.74321" lon="5.47154">
        <ele>404</ele>
        <time>2025-12-18T16:15:32Z</time>
      </trkpt>
      <trkpt lat="49.74301" lon="5.47153">
        <ele>403</ele>
        <time>2025-12-18T16:15:42Z</time>
      </trkpt>
      <trkpt lat="49.74309" lon="5.47147">
        <ele>404</ele>
        <time>2025-12-18T16:15:47Z</time>
      </trkpt>
      <trkpt lat="49.74301" lon="5.47153">
        <ele>403</ele>
        <time>2025-12-18T16:15:51Z</time>
      </trkpt>
      <trkpt lat="49.74068" lon="5.47363">
        <ele>399</ele>
        <time>2025-12-18T16:18:06Z</time>
      </trkpt>
      <trkpt lat="49.73838" lon="5.47571">
        <ele>391</ele>
        <time>2025-12-18T16:20:20Z</time>
      </trkpt>
      <trkpt lat="49.73766" lon="5.47633">
        <ele>390</ele>
        <time>2025-12-18T16:21:01Z</time>
      </trkpt>
      <trkpt lat="49.73714" lon="5.47551">
        <ele>391</ele>
        <time>2025-12-18T16:21:38Z</time>
      </trkpt>
      <trkpt lat="49.73681" lon="5.47503">
        <ele>394</ele>
        <time>2025-12-18T16:22:01Z</time>
      </trkpt>
      <trkpt lat="49.73641" lon="5.47431">
        <ele>396</ele>
        <time>2025-12-18T16:22:31Z</time>
      </trkpt>
      <trkpt lat="49.73561" lon="5.47271">
        <ele>392</ele>
        <time>2025-12-18T16:23:37Z</time>
      </trkpt>
      <trkpt lat="49.73552" lon="5.47267">
        <ele>392</ele>
        <time>2025-12-18T16:23:41Z</time>
      </trkpt>
      <trkpt lat="49.73535" lon="5.47268">
        <ele>392</ele>
        <time>2025-12-18T16:23:50Z</time>
      </trkpt>
      <trkpt lat="49.73513" lon="5.47275">
        <ele>392</ele>
        <time>2025-12-18T16:24:01Z</time>
      </trkpt>
      <trkpt lat="49.73371" lon="5.47362">
        <ele>389</ele>
        <time>2025-12-18T16:25:18Z</time>
      </trkpt>
      <trkpt lat="49.73358" lon="5.47361">
        <ele>388</ele>
        <time>2025-12-18T16:25:24Z</time>
      </trkpt>
      <trkpt lat="49.7335" lon="5.47363">
        <ele>388</ele>
        <time>2025-12-18T16:25:28Z</time>
      </trkpt>
      <trkpt lat="49.73246" lon="5.47473">
        <ele>385</ele>
        <time>2025-12-18T16:26:31Z</time>
      </trkpt>
      <trkpt lat="49.73191" lon="5.47494">
        <ele>382</ele>
        <time>2025-12-18T16:27:00Z</time>
      </trkpt>
      <trkpt lat="49.72976" lon="5.47576">
        <ele>382</ele>
        <time>2025-12-18T16:28:50Z</time>
      </trkpt>
      <trkpt lat="49.72972" lon="5.47581">
        <ele>383</ele>
        <time>2025-12-18T16:28:53Z</time>
      </trkpt>
      <trkpt lat="49.72954" lon="5.47576">
        <ele>382</ele>
        <time>2025-12-18T16:29:02Z</time>
      </trkpt>
      <trkpt lat="49.7292" lon="5.47572">
        <ele>382</ele>
        <time>2025-12-18T16:29:19Z</time>
      </trkpt>
      <trkpt lat="49.72891" lon="5.47562">
        <ele>378</ele>
        <time>2025-12-18T16:29:34Z</time>
      </trkpt>
      <trkpt lat="49.7288" lon="5.47581">
        <ele>377</ele>
        <time>2025-12-18T16:29:42Z</time>
      </trkpt>
      <trkpt lat="49.72879" lon="5.47582">
        <ele>377</ele>
        <time>2025-12-18T16:29:43Z</time>
      </trkpt>
      <trkpt lat="49.72879" lon="5.47582">
        <ele>377</ele>
        <time>2025-12-18T16:29:43Z</time>
      </trkpt>
      <trkpt lat="49.72879" lon="5.47584">
        <ele>377</ele>
        <time>2025-12-18T16:29:44Z</time>
      </trkpt>
      <trkpt lat="49.72876" lon="5.47589">
        <ele>377</ele>
        <time>2025-12-18T16:29:46Z</time>
      </trkpt>
      <trkpt lat="49.72848" lon="5.47636">
        <ele>374</ele>
        <time>2025-12-18T16:30:06Z</time>
      </trkpt>
      <trkpt lat="49.72836" lon="5.47659">
        <ele>374</ele>
        <time>2025-12-18T16:30:16Z</time>
      </trkpt>
      <trkpt lat="49.72741" lon="5.4783">
        <ele>363</ele>
        <time>2025-12-18T16:31:29Z</time>
      </trkpt>
      <trkpt lat="49.72691" lon="5.4774">
        <ele>362</ele>
        <time>2025-12-18T16:32:07Z</time>
      </trkpt>
      <trkpt lat="49.7265" lon="5.47675">
        <ele>361</ele>
        <time>2025-12-18T16:32:37Z</time>
      </trkpt>
      <trkpt lat="49.72599" lon="5.47606">
        <ele>357</ele>
        <time>2025-12-18T16:33:11Z</time>
      </trkpt>
      <trkpt lat="49.72543" lon="5.4752">
        <ele>354</ele>
        <time>2025-12-18T16:33:50Z</time>
      </trkpt>
      <trkpt lat="49.72535" lon="5.47512">
        <ele>353</ele>
        <time>2025-12-18T16:33:55Z</time>
      </trkpt>
      <trkpt lat="49.72479" lon="5.47587">
        <ele>354</ele>
        <time>2025-12-18T16:34:32Z</time>
      </trkpt>
      <trkpt lat="49.72477" lon="5.47584">
        <ele>354</ele>
        <time>2025-12-18T16:34:33Z</time>
      </trkpt>
      <trkpt lat="49.72479" lon="5.47587">
        <ele>354</ele>
        <time>2025-12-18T16:34:35Z</time>
      </trkpt>
      <trkpt lat="49.72471" lon="5.47599">
        <ele>354</ele>
        <time>2025-12-18T16:34:40Z</time>
      </trkpt>
      <trkpt lat="49.72433" lon="5.47669">
        <ele>354</ele>
        <time>2025-12-18T16:35:10Z</time>
      </trkpt>
      <trkpt lat="49.7241" lon="5.47703">
        <ele>353</ele>
        <time>2025-12-18T16:35:26Z</time>
      </trkpt>
      <trkpt lat="49.72361" lon="5.47749">
        <ele>350</ele>
        <time>2025-12-18T16:35:55Z</time>
      </trkpt>
      <trkpt lat="49.72327" lon="5.4778">
        <ele>349</ele>
        <time>2025-12-18T16:36:14Z</time>
      </trkpt>
      <trkpt lat="49.7229" lon="5.47827">
        <ele>347</ele>
        <time>2025-12-18T16:36:38Z</time>
      </trkpt>
      <trkpt lat="49.72251" lon="5.479">
        <ele>347</ele>
        <time>2025-12-18T16:37:09Z</time>
      </trkpt>
      <trkpt lat="49.72224" lon="5.47947">
        <ele>347</ele>
        <time>2025-12-18T16:37:29Z</time>
      </trkpt>
      <trkpt lat="49.72216" lon="5.47958">
        <ele>347</ele>
        <time>2025-12-18T16:37:35Z</time>
      </trkpt>
      <trkpt lat="49.72196" lon="5.47972">
        <ele>347</ele>
        <time>2025-12-18T16:37:46Z</time>
      </trkpt>
      <trkpt lat="49.72177" lon="5.47984">
        <ele>346</ele>
        <time>2025-12-18T16:37:56Z</time>
      </trkpt>
      <trkpt lat="49.72159" lon="5.47991">
        <ele>346</ele>
        <time>2025-12-18T16:38:05Z</time>
      </trkpt>
      <trkpt lat="49.72119" lon="5.4801">
        <ele>344</ele>
        <time>2025-12-18T16:38:26Z</time>
      </trkpt>
      <trkpt lat="49.7211" lon="5.48019">
        <ele>344</ele>
        <time>2025-12-18T16:38:31Z</time>
      </trkpt>
      <trkpt lat="49.72097" lon="5.4804">
        <ele>344</ele>
        <time>2025-12-18T16:38:41Z</time>
      </trkpt>
      <trkpt lat="49.72082" lon="5.4808">
        <ele>343</ele>
        <time>2025-12-18T16:38:56Z</time>
      </trkpt>
      <trkpt lat="49.72053" lon="5.48058">
        <ele>342</ele>
        <time>2025-12-18T16:39:12Z</time>
      </trkpt>
      <trkpt lat="49.72045" lon="5.48044">
        <ele>341</ele>
        <time>2025-12-18T16:39:18Z</time>
      </trkpt>
      <trkpt lat="49.72042" lon="5.48027">
        <ele>341</ele>
        <time>2025-12-18T16:39:24Z</time>
      </trkpt>
      <trkpt lat="49.72044" lon="5.4801">
        <ele>342</ele>
        <time>2025-12-18T16:39:29Z</time>
      </trkpt>
      <trkpt lat="49.72045" lon="5.48009">
        <ele>342</ele>
        <time>2025-12-18T16:39:30Z</time>
      </trkpt>
      <trkpt lat="49.72044" lon="5.4801">
        <ele>342</ele>
        <time>2025-12-18T16:39:30Z</time>
      </trkpt>
      <trkpt lat="49.72042" lon="5.48027">
        <ele>341</ele>
        <time>2025-12-18T16:39:36Z</time>
      </trkpt>
      <trkpt lat="49.72034" lon="5.48036">
        <ele>341</ele>
        <time>2025-12-18T16:39:41Z</time>
      </trkpt>
      <trkpt lat="49.72034" lon="5.48036">
        <ele>341</ele>
        <time>2025-12-18T16:39:41Z</time>
      </trkpt>
      <trkpt lat="49.7202" lon="5.48055">
        <ele>340</ele>
        <time>2025-12-18T16:39:50Z</time>
      </trkpt>
      <trkpt lat="49.72017" lon="5.48067">
        <ele>340</ele>
        <time>2025-12-18T16:39:54Z</time>
      </trkpt>
      <trkpt lat="49.72009" lon="5.48084">
        <ele>339</ele>
        <time>2025-12-18T16:40:01Z</time>
      </trkpt>
      <trkpt lat="49.72001" lon="5.4811">
        <ele>339</ele>
        <time>2025-12-18T16:40:11Z</time>
      </trkpt>
      <trkpt lat="49.71993" lon="5.48145">
        <ele>338</ele>
        <time>2025-12-18T16:40:23Z</time>
      </trkpt>
      <trkpt lat="49.7199" lon="5.48167">
        <ele>338</ele>
        <time>2025-12-18T16:40:30Z</time>
      </trkpt>
      <trkpt lat="49.71989" lon="5.48204">
        <ele>337</ele>
        <time>2025-12-18T16:40:42Z</time>
      </trkpt>
      <trkpt lat="49.71992" lon="5.48244">
        <ele>336</ele>
        <time>2025-12-18T16:40:55Z</time>
      </trkpt>
      <trkpt lat="49.71997" lon="5.48286">
        <ele>336</ele>
        <time>2025-12-18T16:41:09Z</time>
      </trkpt>
      <trkpt lat="49.71997" lon="5.48298">
        <ele>335</ele>
        <time>2025-12-18T16:41:13Z</time>
      </trkpt>
      <trkpt lat="49.71995" lon="5.48309">
        <ele>335</ele>
        <time>2025-12-18T16:41:16Z</time>
      </trkpt>
      <trkpt lat="49.71959" lon="5.48396">
        <ele>336</ele>
        <time>2025-12-18T16:41:50Z</time>
      </trkpt>
      <trkpt lat="49.71959" lon="5.48396">
        <ele>336</ele>
        <time>2025-12-18T16:41:50Z</time>
      </trkpt>
      <trkpt lat="49.71955" lon="5.48408">
        <ele>336</ele>
        <time>2025-12-18T16:41:54Z</time>
      </trkpt>
      <trkpt lat="49.71932" lon="5.48389">
        <ele>335</ele>
        <time>2025-12-18T16:42:07Z</time>
      </trkpt>
      <trkpt lat="49.71905" lon="5.48368">
        <ele>335</ele>
        <time>2025-12-18T16:42:22Z</time>
      </trkpt>
      <trkpt lat="49.71861" lon="5.48329">
        <ele>335</ele>
        <time>2025-12-18T16:42:48Z</time>
      </trkpt>
      <trkpt lat="49.7186" lon="5.48328">
        <ele>335</ele>
        <time>2025-12-18T16:42:48Z</time>
      </trkpt>
    </trkseg>
  </trk>
</gpx>